Flag for Israel Weather past 2 weeks in Rishon LeZion, Israel

Now
48 °F

Clear.


Feels Like: 48 °F
Forecast: 51 / 72 °F
Wind: 1 mph from North

Location: Ben Gurion International Airport

Current Time: Jan 31, 2015 at 2:51:15 AM

Latest Report: Jan 31, 2015 at 2:20 AM


Visibility: 10 mi

Pressure: 30.12 "Hg

Humidity: 66%

Dew point: 37 °F

Location of Rishon LeZionLocation

Historic Weather in Rishon LeZion — Graph

°F

Rishon LeZion temperature yesterday

Maximum temperature yesterday: 64 °F (at 11:50 AM)
Minimum temperature yesterday: 48 °F (at 1:50 AM)
Average temperature yesterday: 55 °F

Past Weeks' High & Low Weather Summary

 TemperatureHumidityPressure
High77 °F (Jan 21, 2:20 PM)100% (Jan 18, 4:20 AM)30.33 "Hg (Jan 18, 4:20 AM)
Low43 °F (Jan 18, 4:20 AM)22% (Jan 24, 1:50 PM)29.86 "Hg (Jan 28, 12:50 AM)
Average56 °F70%30.09 "Hg
* Reported Jan 16 1:20 AM — Jan 31 1:20 AM, Rishon LeZion, Weather by CustomWeather, © 2014

Note: Actual official high and low records may vary slightly from our data, if they occured in-between our weather recording intervals... More about our weather records

Advertising

Rishon LeZion weather history for previous 24 hours

 ConditionsComfort  
Time TempWeatherWind HumidityBarometerVisibility
1:20 AM
Jan 31
48 °FClear.1 mph66%30.12 "Hg10 mi
12:50 AM48 °FClear.1 mph66%30.12 "Hg10 mi
12:20 AM50 °FClear.3 mph62%30.12 "Hg10 mi
11:50 PM
Jan 30
50 °FClear.6 mph62%30.12 "Hg10 mi
11:20 PM50 °FClear.8 mph62%30.12 "Hg10 mi
10:50 PM50 °FClear.3 mph62%30.12 "Hg10 mi
10:20 PM50 °FClear.5 mph62%30.12 "Hg10 mi
9:50 PM52 °FClear.5 mph62%30.12 "Hg10 mi
9:20 PM52 °FClear.3 mph62%30.12 "Hg10 mi
8:50 PM52 °FClear.6 mph58%30.12 "Hg10 mi
7:50 PM54 °FClear.6 mph54%30.09 "Hg10 mi
7:20 PM55 °FClear.7 mph51%30.09 "Hg10 mi
6:50 PM57 °FClear.6 mph48%30.09 "Hg10 mi
6:20 PM59 °FClear.3 mph45%30.09 "Hg10 mi
5:50 PM57 °FClear.3 mph48%30.07 "Hg10 mi
5:20 PM59 °FClear.3 mph48%30.07 "Hg10 mi
4:50 PM61 °FSunny.5 mph42%30.07 "Hg10 mi
4:20 PM63 °FPassing clouds.8 mph39%30.07 "HgN/A
3:50 PM63 °FSunny.10 mph39%30.07 "Hg10 mi
3:20 PM64 °FSunny.10 mph34%30.07 "Hg10 mi
2:50 PM63 °FPassing clouds.16 mph39%30.07 "HgN/A
2:20 PM64 °FPassing clouds.14 mph37%30.07 "HgN/A
1:50 PM63 °FPassing clouds.16 mph37%30.07 "HgN/A
1:20 PM63 °FPassing clouds.16 mph42%30.07 "HgN/A
12:50 PM64 °FPassing clouds.13 mph37%30.04 "HgN/A
12:20 PM64 °FPassing clouds.14 mph40%30.07 "HgN/A
11:50 AM64 °FScattered clouds.13 mph43%30.07 "HgN/A
11:20 AM63 °FPassing clouds.14 mph42%30.07 "HgN/A
10:50 AM63 °FSunny.12 mph45%30.07 "Hg10 mi
10:20 AM61 °FSunny.14 mph48%30.07 "Hg10 mi
9:50 AM59 °FSunny.12 mph51%30.07 "Hg10 mi
9:20 AM57 °FSunny.12 mph51%30.07 "Hg10 mi
8:50 AM55 °FPassing clouds.10 mph55%30.04 "HgN/A
8:20 AM54 °FPassing clouds.10 mph58%30.04 "HgN/A
7:50 AM52 °FPassing clouds.10 mph58%30.04 "HgN/A
7:20 AM52 °FPassing clouds.13 mph58%30.01 "HgN/A
6:50 AM50 °FSunny.9 mph62%30.01 "Hg10 mi
6:20 AM50 °FClear.10 mph67%29.98 "Hg10 mi
5:20 AM50 °FClear.8 mph67%29.95 "Hg10 mi
4:50 AM50 °FClear.6 mph67%29.95 "Hg10 mi
4:20 AM50 °FClear.3 mph67%29.95 "Hg10 mi
3:50 AM50 °FClear.6 mph71%29.95 "Hg10 mi
3:20 AM48 °FClear.5 mph76%29.95 "Hg10 mi
2:50 AM48 °FClear.3 mph76%29.95 "Hg10 mi
2:20 AM48 °FClear.2 mph76%29.95 "Hg10 mi
Weather by CustomWeather, © 2014

See weather overviewHow to use our weather pages